Torna al catalogo

SL-12 DEB

LostHEO
NORAD 42978·DEBRIS·🇷🇺 Russia

Lanciato Sep 2, 2010 da Baikonur Cosmodrome

Loading…

Prossimi Passaggi (prossime 24 ore)

TLE

ObsoletoSource: Space-Track

Epoca: Jan 30, 2022, 02:38 UTC

1 42978U 10041T   22030.10981372  .00147006  00000-0  29091+0 0  9992
2 42978  65.4509 280.5404 5547322 341.3597   4.5885  4.52956649 72508

Traccia SL-12 DEB in tempo reale con AllMySat

Download on the App Store